Location: Sternwarte_Laufen
(47.9344°N, 12.9346°E)
Time: 04:35:07
(UTC+02:00)

ISS - Visible Passes

Search period start: 28 July 2017 00:00
Search period end: 07 August 2017 00:00
Orbit: 400 x 408 km, 51.6° (Epoch: 28 July)

Date Brightness Start Highest point End Pass type
(mag) Time Alt. Az. Time Alt. Az. Time Alt. Az.
28 Jul -2.7 00:44:20 10° WNW 00:46:57 44° NNW 00:46:57 44° NNW visible
28 Jul -3.0 22:15:07 10° W 22:18:19 52° NNW 22:21:31 10° ENE visible
28 Jul -2.7 23:52:00 10° WNW 23:55:08 43° N 23:56:09 32° NE visible
29 Jul -1.0 01:28:31 10° WNW 01:28:46 12° WNW 01:28:46 12° WNW visible
29 Jul -3.5 21:22:42 10° WSW 21:25:57 69° NNW 21:29:12 10° ENE visible
29 Jul -2.6 22:59:35 10° WNW 23:02:44 41° N 23:05:23 13° ENE visible
30 Jul -2.2 00:36:12 10° WNW 00:38:01 30° WNW 00:38:01 30° WNW visible
30 Jul -2.6 22:07:09 10° W 22:10:17 42° N 22:13:24 10° ENE visible
30 Jul -3.3 23:43:53 10° WNW 23:47:06 55° NNE 23:47:17 54° NNE visible
31 Jul -2.8 22:51:31 10° WNW 22:54:40 45° N 22:56:35 20° ENE visible
01 Aug -1.6 00:28:02 10° WNW 00:29:12 20° WNW 00:29:12 20° WNW visible
01 Aug -2.6 21:59:06 10° WNW 22:02:13 41° N 22:05:20 10° ENE visible
01 Aug -3.5 23:35:40 10° WNW 23:38:31 65° NW 23:38:31 65° NW visible
02 Aug -3.5 22:43:18 10° WNW 22:46:32 60° NNE 22:47:51 31° E visible
03 Aug -1.1 00:19:56 10° W 00:20:28 14° W 00:20:28 14° W visible
03 Aug -3.0 21:50:55 10° WNW 21:54:05 48° N 21:57:11 11° E visible
03 Aug -2.9 23:27:26 10° WNW 23:29:49 40° W 23:29:49 40° W visible
04 Aug -4.0 22:35:01 10° WNW 22:38:17 85° SSW 22:39:10 45° ESE visible
05 Aug -3.6 21:42:37 10° WNW 21:45:52 67° NNE 21:48:33 14° E visible
05 Aug -2.0 23:19:19 10° W 23:21:11 23° WSW 23:21:11 23° WSW visible
06 Aug -3.3 22:26:44 10° WNW 22:29:52 45° SSW 22:30:36 37° S visible
